Location: Stonelick Lake State Park
(39.2170°N, 84.0850°W)
Time: 02:46:11
(UTC-04:00)

Daily predictions for brighter satellites

Satellite Brightness Start Highest point End
(mag) Time Altitude Azimuth Time Altitude Azimuth Time Altitude Azimuth
Cosmos 2360 Rocket 4.3 00:17:03 18° NNE 00:17:03 18° NNE 00:18:28 10° NNE
USA 215 4.4 00:32:14 35° WNW 00:32:14 35° WNW 00:36:04 10° NW
Cosmos 2263 Rocket 4.1 00:37:42 10° NNW 00:39:56 24° NW 00:39:56 24° NW
Cosmos 2322 Rocket 4.1 00:45:09 24° NW 00:45:09 24° NW 00:48:48 10° N
ATLAS CENTAUR R/B 4.2 01:07:38 85° WNW 01:07:49 86° NW 01:31:50 10° NE
Cosmos 2278 Rocket 4.3 01:21:37 10° N 01:23:57 22° N 01:23:57 22° N
ATLAS 3B R/B 3.9 01:54:42 39° NE 01:54:42 39° NE 01:59:06 10° NE
Cosmos 2219 Rocket 4.2 02:21:35 24° N 02:21:35 24° N 02:23:54 10° N
SL-16 R/B 4.1 02:32:46 26° NE 02:32:46 26° NE 02:35:11 10° NNE
Cosmos 2333 Rocket 4.0 02:33:46 27° N 02:33:46 27° N 02:36:30 10° NNE
Cosmos 2237 Rocket 4.0 02:37:53 27° N 02:37:53 27° N 02:40:33 10° NNE
CZ-4C R/B 3.7 03:01:21 32° NE 03:01:21 32° NE 03:04:32 10° NE
CZ-3A R/B 4.1 03:04:31 48° SE 03:06:06 52° ESE 03:43:19 10° NE
SL-16 R/B 4.0 03:20:43 23° ESE 03:23:16 31° ENE 03:28:35 10° N
Cosmos 1553 Rocket 4.2 03:43:22 66° NNE 03:43:22 66° NNE 03:48:33 10° N
ATLAS 3B R/B 4.1 03:41:56 29° NW 03:42:58 30° NW 03:49:21 10° NNE
Cosmos 1943 4.2 03:43:43 39° E 03:43:43 39° E 03:48:25 10° NE
ATLAS CENTAUR R/B 3.7 03:40:33 10° N 03:43:55 24° NE 03:43:55 24° NE
CZ-2D R/B 3.4 03:40:48 10° NNE 03:45:24 33° E 03:45:24 33° E
Cosmos 1745 Rocket 4.1 03:41:20 10° N 03:47:26 74° ENE 03:47:26 74° ENE
Cosmos 2369 Rocket 3.3 03:50:12 10° N 03:55:30 41° ENE 03:59:34 16° SE
Spot 4 Rocket 4.5 03:58:43 10° NNE 04:02:50 58° NNE 04:02:50 58° NNE
IRS-1D 3.9 03:59:07 10° NNE 04:03:55 60° E 04:03:55 60° E
ADEOS 4.0 04:03:54 10° N 04:08:05 56° N 04:08:05 56° N
SL-16 R/B 4.0 04:14:39 20° NW 04:14:39 20° NW 04:18:14 10° N
ARIANE 5 R/B 2.6 04:10:47 10° NNE 04:15:40 77° NE 04:15:40 77° NE
Cosmos 1331 Rocket 4.1 04:12:11 10° NNW 04:17:28 72° ENE 04:17:46 70° E
Cosmos 1943 Rocket 4.0 04:17:18 10° N 04:22:15 30° ENE 04:27:09 10° ESE
Resurs 1-4 Rocket 2.0 04:18:07 10° NNE 04:23:25 78° ESE 04:23:37 76° SE
Cosmos 883 Rocket 4.3 04:29:56 68° SSW 04:30:44 80° W 04:36:53 10° N
USA 234 3.3 04:24:34 10° NE 04:31:04 67° NW 04:32:36 52° W
SeaSat 1 3.6 04:26:53 10° SE 04:31:29 41° ENE 04:36:06 10° N
Meteor 1-27 4.2 04:33:33 64° WNW 04:33:33 64° WNW 04:39:00 10° N
ERS-2 4.1 04:33:53 10° N 04:35:33 23° NNW 04:35:33 23° NNW
Okean O Rocket 3.0 04:36:14 10° NNE 04:40:21 35° E 04:42:13 25° SE
Cosmos 2315 Rocket 3.9 04:39:23 46° S 04:41:25 88° E 04:47:43 10° N
BREEZE-M DEB (TANK) 4.3 04:43:47 28° W 04:46:31 37° NW 04:50:07 10° NNE
CZ-4C R/B 3.8 04:46:31 19° WNW 04:47:55 21° NW 04:52:27 10° NNE
Cosmos 2251 Rocket 4.0 04:48:47 44° WNW 04:48:50 44° WNW 04:53:51 10° N
NOSS 3-2 (A) 4.2 04:48:28 35° WNW 04:49:54 39° NW 04:56:08 10° NNE
EO 1 Del DPAF 3.7 04:50:48 52° NNW 04:50:48 52° NNW 04:53:50 10° NNW
CZ-2D R/B 3.6 04:47:32 10° NNE 04:51:57 79° ESE 04:52:35 63° S
ATLAS 5 CENTAUR R/B 1.8 04:51:30 61° S 04:52:20 79° ESE 04:57:31 10° NE
UNKNOWN OBJECT B 3.1 04:48:40 10° N 04:51:42 56° NNW 04:51:42 56° NNW
BREEZE-M DEB (TANK) 4.2 04:54:09 21° NNE 04:54:09 21° NNE 04:56:00 10° ENE
CZ-4B R/B 4.5 04:51:20 10° NE 04:54:33 29° E 04:56:33 18° SE
Cosmos 1869 3.4 04:55:35 59° SSE 04:56:09 70° E 05:00:07 10° NNE
IRS-1C Rocket 4.4 04:52:53 10° NNE 04:58:08 62° ESE 05:01:15 24° S
SL-27 R/B 3.8 05:00:14 29° SE 05:01:23 37° ESE 05:04:45 10° NE
Iridium 2 4.4 04:57:45 10° NNW 05:00:30 41° NW 05:00:30 41° NW
MOS 1-B 4.3 04:56:44 10° N 05:02:30 69° WNW 05:04:39 39° SW
NOSS 3-2 (C) 4.3 05:04:09 30° W 05:06:12 38° NW 05:12:24 10° NNE
SL-16 R/B 2.9 05:05:49 38° WSW 05:06:42 40° W 05:12:30 10° NNW
CENTAUR R/B 2.7 05:05:35 29° SSW 05:08:50 68° ESE 05:15:32 10° NE
CZ-2C R/B 3.9 05:05:09 10° SSE 05:09:33 69° ENE 05:13:59 10° N
Cosmos 1892 3.7 05:06:19 10° NNW 05:08:51 33° NW 05:08:51 33° NW
Meteor 2-11 Rocket 4.4 05:07:57 34° SSW 05:10:35 64° W 05:16:38 10° N
Meteor 2-3 Rocket 4.3 05:05:29 10° NNW 05:10:40 35° W 05:11:03 35° W
Atlas Centaur 2 4.0 05:10:15 10° SSE 05:11:22 11° SSE 05:12:32 10° SE
Meteor 2-10 4.5 05:11:13 39° WSW 05:12:35 46° WNW 05:17:49 10° N
Cosmos 2242 Rocket 4.4 05:14:02 34° WNW 05:14:04 34° WNW 05:18:15 10° N
ARGOS Delta rocket 3.6 05:14:54 10° N 05:19:16 66° WNW 05:20:54 37° SW
ATLAS CENTAUR R/B 3.6 05:19:27 10° NW 05:20:01 13° NW 05:20:01 13° NW
COSMOS 2406 3.6 05:19:14 16° S 05:23:48 65° ESE 05:29:30 10° NNE
Cosmos 1862 Rocket 3.6 05:23:05 38° SW 05:24:24 54° W 05:28:43 10° N
CZ-2D R/B 3.1 05:21:00 10° N 05:25:29 29° WNW 05:26:44 26° W
MOZ.5/SAFIR/RUBIN 5/SL-8 3.6 05:21:33 10° S 05:26:09 72° WSW 05:30:47 10° NNW
Cosmos 1943 4.3 05:25:33 24° W 05:27:18 29° WNW 05:32:11 10° N
Nadezhda 1 Rocket 4.2 05:25:45 10° S 05:31:56 76° E 05:38:17 10° N
PSLV R/B 3.6 05:35:27 28° WNW 05:37:04 62° N 05:40:27 10° E
CZ-4B DEB 4.1 05:33:02 10° NNE 05:38:33 82° WNW 05:43:58 10° SSW
Cosmos 2369 Rocket 3.1 05:34:42 10° NW 05:39:15 26° WSW 05:41:02 22° SW
PSLV R/B 4.2 05:36:27 10° N 05:40:00 41° WNW 05:41:24 28° WSW
Cosmos 1455 3.5 05:40:22 23° W 05:40:37 23° WNW 05:43:46 10° NNW
Okean 1-7 3.9 05:37:25 10° SSE 05:41:34 50° E 05:45:46 10° NNE
CZ-4B R/B 3.1 05:36:41 10° N 05:41:58 70° WNW 05:46:45 12° SSW
Cosmos 389 Rocket 3.3 05:45:45 28° WSW 05:46:38 32° WNW 05:49:49 10° N
Cosmos 1733 Rocket 4.1 05:48:38 10° NW 05:52:11 25° W 05:53:57 19° WSW
ARIANE 5 R/B 4.5 05:52:22 10° NW 05:54:24 12° WNW 05:56:01 11° WNW
Cosmos 2074 Rocket 4.1 05:50:35 10° NNW 05:56:35 53° W 06:02:36 10° SSW
Cosmos 2154 Rocket 4.2 05:51:41 10° N 05:58:02 77° E 06:04:23 10° S
Cosmos 1782 Rocket 3.5 05:55:06 10° N 05:59:28 85° W 06:03:47 10° S
Cosmos 2184 Rocket 4.2 05:53:21 10° NNW 05:59:32 53° W 06:05:39 10° SSW
BREEZE-M DEB (TANK) 2.9 06:00:34 20° SW 06:02:13 89° SE 06:07:07 10° NE
Resurs 1-4 Rocket 4.0 06:00:06 10° NNW 06:02:34 13° WNW 06:04:42 11° W
Cosmos 1184 Rocket 4.4 06:00:13 10° NW 06:02:34 17° W 06:02:58 17° W
Cosmos 1943 Rocket 2.6 06:00:51 10° NW 06:06:03 38° WSW 06:11:11 10° S
SeaSat 1 3.4 06:05:08 10° SSW 06:09:05 24° WSW 06:13:06 10° NW
COSMOS 2487 2.9 06:05:39 10° S 06:09:14 66° ESE 06:12:49 10° NNE
Meteor 1-31 Rocket 3.6 06:07:01 10° NNE 06:10:45 51° E 06:14:27 10° S
Geosat 4.1 06:05:50 10° NNE 06:10:49 65° WNW 06:15:47 10° SW
Okean O Rocket 3.1 06:13:10 10° NNW 06:16:29 21° WNW 06:19:41 10° WSW
Cosmos 2341 Rocket 4.1 06:11:24 10° N 06:17:43 85° E 06:24:03 10° S
Cosmos 2221 Rocket 4.0 06:13:48 10° SSW 06:17:59 41° WNW 06:22:11 10° N
Cosmos 1408 3.6 06:15:01 10° NNW 06:18:15 28° W 06:21:28 10° SSW
ADEOS II 2.1 06:14:12 10° N 06:19:26 71° WNW 06:24:39 10° SSW
Cosmos 1825 3.2 06:16:27 10° NNW 06:19:41 27° W 06:22:52 10° SSW
Cosmos 1908 Rocket 4.5 06:16:17 10° NNW 06:20:00 28° W 06:23:42 10° SSW
Okean-O 2.8 06:15:43 10° N 06:20:05 57° WNW 06:24:25 10° SSW
Cosmos 1862 4.4 06:18:32 10° NW 06:21:47 24° W 06:25:01 10° SW
Thor Agena Rocket 4.1 06:19:45 10° SSW 06:24:24 35° W 06:29:08 10° NNW
Cosmos 1190 Rocket 4.2 06:23:09 10° SSW 06:28:15 56° WNW 06:33:22 10° N
Cosmos 2285 Rocket 4.4 06:23:21 10° NNW 06:29:20 42° W 06:35:15 10° S
CZ-4B R/B 4.4 06:27:12 10° NNW 06:29:33 16° WNW 06:31:57 10° WSW
GPS 2-05 Rocket1 4.5 06:27:57 10° SW 06:30:38 23° SSE 06:33:15 10° ESE
Feng Yun 1-1 Rocket 4.3 06:25:59 10° N 06:31:16 58° WNW 06:36:33 10° SSW
CZ-3 R/B 4.3 06:10:04 10° W 06:38:31 31° SW 06:47:23 10° S
